Temp
-16 -16 -16 -17 -18 -19 -20 -22 -23 -24 -24 -23 -23 -23 -25 -25 -24 -23 -23 -23 -23 -23 -22 -22 -21 -21 -20 -19 -20 -18 -17 -17 -16 -15 -14 -14 -15 -14 -13 -13 -13 -13 -12 -11
-16 -17 -18 -18 -20 -22 -23 -24 -25 -25 -25 -24 -24 -25 -25 -25 -25 -24 -24 -24 -23 -23 -23 -22 -22 -21 -20 -19 -20 -20 -18 -17 -17 -15 -15 -14 -15 -14 -13 -13 -13 -13 -13 -12
-16 -17 -18 -19 -21 -22 -25 -26 -26 -26 -26 -25 -25 -25 -27 -27 -26 -24 -25 -24 -24 -24 -23 -23 -22 -21 -20 -20 -19 -19 -19 -18 -17 -16 -15 -14 -14 -15 -14 -14 -14 -14 -13 -13
-17 -18 -19 -20 -22 -24 -25 -26 -27 -27 -27 -26 -27 -27 -27 -26 -26 -26 -26 -25 -24 -24 -24 -23 -22 -22 -21 -20 -19 -19 -19 -18 -17 -16 -15 -15 -15 -15 -14 -14 -14 -14 -14 -13
-17 -18 -19 -20 -21 -24 -25 -27 -27 -27 -27 -27 -27 -27 -27 -27 -27 -26 -26 -26 -25 -25 -24 -23 -23 -22 -21 -21 -19 -19 -18 -19 -18 -16 -16 -15 -15 -15 -15 -15 -14 -14 -14 -14
-17 -18 -20 -20 -21 -23 -25 -26 -27 -27 -27 -27 -27 -27 -27 -27 -26 -26 -26 -25 -25 -25 -24 -23 -23 -22 -21 -21 -21 -20 -19 -18 -18 -18 -17 -16 -16 -15 -15 -15 -15 -15 -15 -15
-17 -19 -20 -20 -20 -22 -24 -25 -26 -26 -26 -27 -27 -27 -27 -27 -27 -27 -26 -26 -25 -25 -24 -24 -23 -23 -23 -22 -21 -19 -19 -18 -18 -18 -18 -18 -17 -15 -15 -15 -15 -15 -15 -15
-17 -18 -19 -19 -20 -21 -23 -25 -25 -26 -26 -27 -27 -27 -27 -27 -27 -27 -26 -26 -25 -25 -24 -24 -24 -23 -23 -23 -22 -22 -20 -19 -18 -18 -18 -18 -18 -16 -16 -15 -15 -15 -15 -15
-17 -19 -19 -19 -20 -22 -22 -24 -26 -26 -26 -26 -27 -27 -28 -28 -28 -27 -26 -26 -26 -25 -25 -24 -24 -24 -24 -23 -22 -22 -21 -20 -18 -18 -18 -18 -18 -17 -16 -15 -15 -15 -15 -15
-18 -18 -19 -20 -20 -21 -22 -23 -24 -25 -27 -27 -27 -27 -27 -28 -28 -28 -28 -27 -26 -26 -25 -25 -24 -24 -24 -23 -23 -24 -23 -21 -19 -18 -18 -18 -18 -17 -16 -16 -16 -15 -15 -15
-18 -18 -19 -19 -19 -19 -21 -21 -23 -24 -25 -26 -27 -27 -27 -27 -27 -28 -28 -27 -26 -26 -25 -25 -25 -24 -23 -23 -24 -22 -21 -20 -19 -18 -18 -18 -17 -17 -17 -16 -16 -16 -15 -15
-17 -18 -18 -19 -19 -19 -20 -21 -21 -22 -23 -25 -25 -25 -26 -26 -27 -27 -27 -27 -27 -27 -26 -26 -26 -24 -23 -24 -21 -21 -19 -19 -18 -19 -19 -18 -17 -17 -17 -17 -17 -16 -15 -15
-18 -18 -18 -18 -19 -19 -19 -20 -21 -21 -20 -21 -22 -24 -24 -24 -25 -25 -26 -26 -25 -25 -25 -25 -23 -22 -22 -22 -21 -18 -18 -18 -18 -17 -18 -18 -17 -17 -17 -17 -17 -16 -16 -15
-18 -18 -18 -18 -19 -19 -19 -20 -20 -20 -20 -20 -21 -21 -22 -22 -22 -22 -22 -22 -22 -22 -22 -21 -22 -22 -21 -19 -19 -18 -18 -17 -17 -18 -18 -18 -17 -17 -17 -17 -16 -16 -16 -16
-18 -18 -18 -18 -18 -19 -18 -19 -19 -20 -19 -20 -20 -21 -21 -22 -23 -23 -23 -23 -23 -24 -23 -21 -20 -20 -19 -19 -19 -18 -17 -18 -17 -17 -16 -16 -18 -17 -17 -16 -17 -16 -17 -16
-18 -18 -18 -18 -18 -18 -19 -18 -19 -20 -19 -19 -20 -20 -20 -20 -20 -21 -21 -21 -20 -20 -20 -19 -19 -19 -19 -19 -18 -18 -18 -18 -18 -18 -18 -18 -18 -16 -16 -16 -17 -17 -17 -17
-18 -18 -19 -18 -18 -18 -19 -18 -18 -19 -19 -20 -19 -19 -19 -19 -19 -19 -19 -19 -19 -19 -19 -19 -19 -19 -20 -19 -19 -19 -19 -19 -19 -19 -19 -18 -18 -18 -17 -17 -18 -18 -18 -18
-18 -19 -19 -19 -19 -18 -18 -19 -18 -18 -19 -19 -19 -19 -19 -20 -19 -19 -19 -19 -19 -20 -20 -19 -19 -20 -19 -19 -19 -19 -19 -20 -20 -20 -20 -19 -19 -19 -19 -19 -19 -19 -19 -19
-18 -19 -19 -19 -19 -19 -19 -18 -19 -18 -18 -18 -18 -19 -19 -19 -19 -19 -19 -19 -19 -19 -19 -19 -19 -19 -19 -19 -19 -20 -20 -20 -20 -20 -20 -19 -19 -19 -19 -19 -19 -19 -19 -19
-18 -18 -19 -19 -20 -19 -19 -19 -19 -19 -19 -18 -18 -19 -19 -19 -19 -19 -19 -19 -20 -20 -19 -19 -19 -19 -19 -20 -20 -20 -20 -20 -20 -20 -20 -20 -20 -20 -20 -20 -20 -20 -19 -19
-18 -18 -18 -19 -19 -19 -19 -19 -19 -19 -20 -19 -18 -18 -19 -19 -19 -19 -19 -19 -20 -20 -20 -20 -20 -20 -20 -19 -20 -20 -20 -20 -20 -20 -20 -20 -20 -20 -20 -20 -20 -20 -20 -20
-17 -18 -18 -18 -18 -19 -18 -19 -19 -19 -19 -20 -20 -19 -18 -19 -20 -20 -20 -20 -20 -20 -20 -20 -20 -20 -20 -20 -20 -20 -20 -20 -20 -20 -20 -20 -20 -20 -20 -20 -20 -20 -20 -20
-17 -17 -18 -18 -18 -18 -18 -18 -18 -19 -19 -19 -20 -20 -20 -20 -20 -20 -20 -20 -20 -20 -20 -20 -20 -20 -20 -20 -20 -20 -20 -20 -20 -20 -20 -20 -20 -20 -20 -20 -20 -20 -20 -20
-16 -17 -18 -18 -18 -18 -18 -18 -18 -18 -18 -19 -19 -19 -19 -19 -19 -19 -19 -19 -19 -19 -20 -20 -20 -20 -20 -20 -20 -20 -20 -20 -20 -20 -20 -20 -20 -20 -20 -20 -20 -20 -20 -20
-16 -17 -17 -17 -18 -18 -17 -18 -18 -18 -18 -18 -18 -18 -19 -19 -19 -19 -19 -19 -20 -20 -20 -20 -20 -20 -20 -20 -20 -20 -20 -20 -20 -20 -20 -20 -20 -20 -20 -20 -20 -20 -20 -20
-16 -16 -17 -17 -17 -17 -17 -17 -18 -18 -18 -18 -18 -19 -19 -19 -19 -19 -19 -19 -19 -19 -19 -20 -20 -19 -19 -20 -20 -20 -20 -20 -20 -20 -20 -20 -20 -20 -20 -20 -20 -20 -20 -20
Height
5641 5628 5615 5602 5587 5570 5552 5537 5525 5521 5511 5509 5508 5504 5500 5501 5506 5513 5515 5520 5524 5527 5529 5534 5541 5549 5558 5566 5573 5579 5592 5604 5613 5622 5632 5642 5647 5663 5670 5679 5686 5693 5697 5703
5636 5621 5607 5593 5575 5556 5538 5522 5510 5505 5497 5495 5493 5489 5489 5492 5496 5503 5508 5511 5515 5519 5524 5528 5534 5541 5549 5557 5562 5565 5578 5591 5601 5610 5620 5632 5641 5653 5664 5672 5680 5685 5687 5691
5630 5616 5601 5586 5569 5548 5525 5508 5499 5495 5491 5488 5484 5482 5484 5487 5489 5494 5501 5502 5507 5511 5516 5522 5528 5534 5539 5546 5553 5560 5568 5580 5591 5600 5611 5622 5632 5643 5654 5663 5670 5675 5682 5687
5626 5611 5597 5582 5559 5535 5520 5506 5500 5496 5493 5488 5485 5487 5486 5485 5486 5490 5493 5496 5500 5505 5510 5516 5522 5528 5532 5537 5547 5555 5567 5578 5587 5595 5604 5615 5625 5635 5646 5655 5659 5666 5673 5678
5625 5610 5596 5577 5554 5533 5519 5511 5506 5502 5498 5493 5492 5491 5488 5487 5487 5488 5491 5494 5497 5501 5506 5510 5516 5522 5529 5531 5539 5551 5559 5568 5579 5588 5596 5606 5619 5627 5637 5647 5652 5663 5669 5672
5622 5607 5591 5574 5554 5537 5523 5516 5511 5506 5501 5498 5494 5492 5490 5488 5486 5488 5490 5492 5494 5498 5501 5506 5510 5514 5521 5528 5535 5542 5550 5560 5570 5580 5589 5598 5610 5623 5631 5642 5650 5656 5660 5664
5622 5608 5595 5583 5568 5547 5532 5523 5516 5511 5505 5500 5496 5494 5491 5489 5487 5487 5487 5490 5492 5495 5499 5502 5505 5509 5513 5518 5524 5532 5541 5552 5563 5574 5584 5594 5605 5618 5628 5635 5645 5652 5657 5663
5621 5608 5597 5582 5564 5546 5533 5524 5516 5509 5507 5503 5498 5494 5491 5488 5486 5486 5485 5487 5490 5492 5494 5498 5500 5504 5509 5514 5520 5526 5533 5544 5557 5569 5579 5590 5601 5613 5623 5632 5640 5647 5653 5658
5623 5609 5595 5584 5568 5553 5541 5529 5521 5514 5507 5504 5501 5497 5493 5489 5487 5485 5485 5485 5488 5490 5491 5493 5497 5501 5505 5510 5517 5521 5527 5538 5552 5565 5578 5588 5599 5609 5620 5629 5636 5642 5648 5653
5626 5614 5601 5590 5574 5562 5547 5535 5523 5514 5507 5502 5500 5499 5496 5494 5491 5487 5484 5486 5488 5489 5489 5492 5495 5497 5501 5506 5511 5516 5523 5536 5552 5565 5578 5589 5598 5609 5617 5624 5631 5639 5644 5647
5630 5618 5608 5597 5585 5573 5558 5544 5529 5520 5511 5505 5502 5499 5495 5492 5490 5487 5486 5486 5486 5486 5486 5487 5488 5492 5495 5501 5505 5512 5523 5539 5556 5569 5581 5589 5598 5607 5615 5622 5628 5634 5640 5642
5634 5623 5612 5602 5590 5579 5568 5552 5540 5530 5517 5512 5505 5503 5496 5492 5489 5488 5486 5485 5485 5486 5485 5486 5488 5491 5495 5496 5502 5510 5522 5541 5557 5570 5578 5590 5598 5605 5613 5620 5626 5632 5636 5639
5637 5629 5619 5606 5599 5587 5581 5566 5551 5541 5535 5526 5517 5512 5506 5499 5496 5493 5490 5488 5489 5487 5489 5490 5493 5498 5502 5508 5512 5517 5529 5542 5559 5570 5585 5590 5599 5606 5612 5618 5625 5630 5634 5636
5640 5632 5622 5611 5602 5596 5590 5579 5564 5554 5548 5543 5535 5528 5520 5517 5515 5511 5505 5502 5503 5502 5501 5501 5506 5508 5510 5516 5522 5527 5541 5551 5564 5572 5581 5591 5597 5604 5611 5618 5624 5627 5628 5628
5643 5636 5628 5619 5609 5604 5598 5593 5575 5567 5562 5557 5550 5539 5533 5529 5525 5522 5521 5519 5516 5517 5513 5513 5517 5521 5527 5532 5538 5544 5556 5564 5570 5577 5584 5594 5599 5606 5612 5616 5618 5621 5622 5622
5644 5639 5632 5626 5618 5609 5605 5601 5591 5578 5574 5570 5563 5555 5548 5542 5537 5533 5529 5526 5527 5527 5528 5530 5533 5536 5541 5547 5552 5559 5567 5575 5583 5590 5594 5597 5601 5606 5609 5614 5617 5620 5620 5620
5645 5640 5636 5629 5623 5617 5610 5606 5602 5590 5584 5582 5575 5571 5565 5559 5554 5551 5548 5547 5547 5548 5548 5549 5552 5556 5559 5562 5567 5573 5580 5586 5591 5596 5598 5599 5601 5604 5607 5611 5615 5616 5617 5615
5646 5641 5636 5631 5625 5620 5614 5609 5607 5602 5593 5591 5585 5581 5577 5575 5570 5567 5566 5563 5562 5563 5564 5566 5568 5571 5574 5577 5581 5585 5589 5592 5594 5596 5598 5599 5601 5604 5608 5612 5613 5613 5613 5614
5646 5641 5637 5632 5626 5623 5618 5613 5610 5607 5602 5598 5595 5591 5586 5584 5583 5579 5577 5577 5576 5576 5576 5577 5578 5580 5582 5585 5588 5590 5593 5595 5598 5601 5602 5604 5606 5607 5610 5611 5612 5613 5612 5613
5646 5641 5637 5632 5627 5622 5619 5615 5613 5611 5607 5602 5601 5598 5594 5591 5588 5587 5585 5584 5583 5584 5584 5585 5586 5587 5589 5592 5594 5595 5599 5602 5603 5606 5607 5608 5608 5610 5611 5612 5613 5613 5613 5611
5645 5642 5637 5631 5628 5625 5620 5616 5614 5614 5615 5607 5604 5603 5600 5596 5595 5594 5593 5591 5593 5594 5593 5593 5594 5595 5598 5601 5603 5604 5607 5608 5610 5610 5611 5611 5611 5612 5611 5612 5611 5609 5609 5607
5645 5641 5637 5632 5629 5626 5621 5618 5616 5614 5613 5613 5608 5605 5605 5602 5601 5600 5600 5599 5600 5600 5601 5601 5601 5602 5606 5609 5611 5611 5612 5612 5612 5612 5611 5611 5611 5611 5612 5609 5607 5607 5605 5603
5645 5642 5638 5634 5631 5628 5625 5621 5617 5615 5615 5615 5615 5613 5610 5610 5609 5607 5606 5606 5607 5608 5608 5609 5609 5609 5611 5612 5613 5615 5614 5614 5614 5612 5613 5611 5610 5609 5606 5606 5605 5603 5600 5597
5643 5641 5638 5635 5633 5631 5629 5627 5624 5621 5618 5617 5617 5617 5615 5614 5614 5613 5612 5613 5613 5613 5614 5615 5615 5615 5616 5617 5617 5617 5617 5616 5616 5615 5613 5611 5610 5608 5606 5603 5599 5594 5591 5588
5643 5641 5638 5636 5633 5632 5631 5630 5629 5628 5626 5624 5623 5622 5621 5620 5620 5619 5619 5619 5619 5619 5619 5619 5619 5618 5618 5618 5618 5617 5616 5615 5614 5612 5609 5607 5603 5600 5597 5595 5592 5588 5582 5575
5640 5640 5638 5636 5634 5633 5632 5631 5631 5631 5630 5629 5628 5626 5625 5625 5625 5624 5623 5623 5623 5623 5622 5621 5621 5620 5619 5618 5616 5615 5613 5612 5610 5607 5605 5601 5599 5596 5593 5589 5583 5577 5572 5568
Wind_Speed
51 54 57 58 58 59 63 61 52 38 39 37 36 42 39 42 40 36 37 29 29 32 38 42 44 47 46 39 37 54 66 67 70 74 75 71 68 61 57 60 52 49 45 40
56 56 59 59 61 62 60 54 41 32 33 32 29 30 26 32 35 33 31 30 27 28 31 35 39 42 42 37 38 42 63 65 67 71 72 72 67 62 58 53 47 50 59 46
58 57 58 58 64 68 48 41 29 22 21 17 16 18 18 28 23 30 25 28 27 25 26 27 31 37 38 39 40 40 51 63 67 71 71 71 67 64 59 56 54 47 44 52
58 56 55 62 69 60 42 33 19 17 16 18 13 8 8 5 9 10 12 16 20 22 20 18 21 28 37 41 40 40 42 53 63 67 70 69 65 63 60 53 53 52 49 40
56 53 55 66 74 61 47 29 14 14 15 15 16 11 8 6 4 4 5 8 13 14 14 15 17 20 28 35 40 39 42 44 51 66 68 69 65 62 60 58 57 46 33 46
55 52 55 61 70 66 54 34 21 17 15 12 13 11 9 5 1 4 5 8 12 15 13 13 13 17 22 27 28 36 46 46 44 53 62 65 65 61 58 58 59 48 50 43
53 47 51 55 59 65 52 43 31 25 21 14 14 13 9 5 1 4 7 3 7 9 11 10 9 12 16 18 25 37 41 48 46 47 51 54 55 60 58 58 53 51 41 37
53 46 46 57 59 59 61 45 36 32 27 21 18 18 16 5 2 3 6 8 7 6 10 11 11 9 14 21 21 29 39 46 51 48 45 46 42 50 53 48 53 48 49 48
53 46 48 57 60 56 50 51 40 25 22 20 21 19 20 21 17 10 3 3 6 8 10 11 11 11 17 22 22 23 34 44 50 51 45 39 35 39 47 47 46 43 39 42
51 47 46 52 54 58 53 48 46 41 27 15 16 17 18 13 14 13 7 2 7 8 9 9 10 14 20 20 18 22 24 34 46 46 47 39 32 34 41 41 42 44 39 31
49 47 44 46 50 56 65 57 50 44 37 31 25 21 22 21 18 12 7 3 7 10 14 18 23 26 29 32 33 44 36 28 31 33 31 26 27 33 37 37 39 40 30 26
44 50 43 44 48 53 62 59 59 47 43 39 44 40 38 32 28 21 10 2 4 11 19 22 28 36 40 47 38 20 37 35 37 37 38 31 29 27 20 31 36 35 31 28
41 46 50 48 42 45 52 56 57 51 43 41 38 31 29 22 18 8 3 5 13 21 28 32 41 44 42 22 24 36 46 41 37 42 32 26 25 21 22 23 19 17 18 10
36 42 48 49 44 42 48 47 49 50 46 37 33 32 33 33 40 41 44 43 48 46 40 42 31 16 23 36 35 36 32 42 40 31 30 25 22 16 18 21 18 2 9 4
32 37 43 48 47 40 40 42 45 45 43 44 37 30 25 24 25 21 22 19 15 9 6 19 41 51 52 49 45 47 46 36 28 27 37 31 28 22 19 14 7 5 3 4
27 31 35 40 43 39 33 34 36 37 35 36 37 37 44 42 40 38 38 33 34 44 49 54 54 50 47 44 44 44 42 35 35 34 32 31 28 24 19 11 8 7 7 5
25 27 30 34 35 35 26 28 27 27 33 35 32 33 42 51 55 53 48 49 50 54 50 49 45 42 40 40 36 36 36 34 32 28 25 24 22 21 16 15 12 10 7 7
24 24 25 30 32 31 26 22 22 22 21 29 31 32 31 34 37 43 41 40 40 40 40 35 31 34 35 33 32 31 29 28 28 26 24 23 23 22 18 15 13 12 10 8
24 23 23 24 29 25 24 13 16 13 16 20 24 25 26 30 31 34 33 32 29 31 30 31 31 30 31 32 32 32 31 29 27 25 23 22 21 21 16 14 12 9 9 10
25 22 22 22 24 24 24 10 8 11 12 14 15 20 24 24 28 25 25 24 27 26 30 33 33 33 33 32 32 32 30 29 30 28 25 22 19 17 13 11 9 8 9 13
23 21 20 22 19 22 23 15 5 7 9 12 12 15 17 22 26 29 28 27 27 29 29 31 32 33 31 29 32 34 31 29 26 23 20 17 15 13 12 12 14 16 17 19
24 20 20 19 15 21 21 22 8 6 6 7 11 15 18 19 21 24 26 24 25 27 29 32 38 38 34 30 28 27 25 24 21 18 17 15 13 13 13 15 17 18 21 24
20 20 19 16 13 17 19 22 19 6 6 7 7 9 16 17 18 19 21 25 31 34 34 33 33 32 29 26 24 22 21 20 18 18 16 16 15 16 17 18 20 23 25 27
18 18 16 13 8 13 16 19 23 23 14 7 7 9 12 16 23 29 31 31 29 29 29 28 26 24 22 21 19 18 16 16 16 17 17 17 19 19 20 21 24 27 29 31
13 17 14 13 4 7 11 12 13 18 19 21 22 24 25 25 24 25 26 25 24 23 21 19 18 16 14 13 13 15 18 20 22 23 24 25 25 25 26 26 27 29 32 35
8 13 11 11 2 3 6 8 8 11 12 13 15 18 19 19 18 18 17 16 15 14 13 11 9 8 9 11 14 17 21 24 27 29 30 27 26 27 28 29 30 33 35 38
Wind_Direction
349 347 346 343 334 325 316 317 316 304 288 279 269 267 259 259 258 251 248 243 236 234 229 229 229 230 229 229 228 221 222 219 216 218 219 220 224 222 226 229 237 239 246 238
353 354 352 344 336 329 329 327 312 298 289 290 280 270 259 254 251 247 247 243 238 232 230 225 223 226 226 220 217 218 222 219 217 217 219 221 223 222 223 227 236 233 234 232
358 359 355 345 337 336 338 330 337 335 324 322 305 263 231 231 247 235 246 243 238 235 228 224 222 222 221 218 215 215 221 219 216 216 218 219 222 223 222 225 229 236 242 243
2 5 0 356 356 356 357 355 29 26 33 27 23 26 360 294 259 253 241 235 229 228 228 224 217 222 220 219 217 218 222 224 220 217 219 220 221 224 222 225 235 233 240 237
5 9 4 6 7 8 8 9 24 1 22 32 33 14 354 345 282 350 162 205 207 195 200 204 207 215 226 222 219 218 217 222 225 219 220 220 220 223 223 223 232 234 239 244
9 10 11 12 12 16 21 23 12 354 356 13 18 4 3 14 85 207 198 182 194 196 190 197 209 220 231 235 232 221 218 221 224 226 222 222 221 220 224 225 229 231 244 256
12 10 11 17 15 17 23 29 27 18 9 12 358 358 351 6 169 223 250 227 204 201 201 199 213 235 235 236 243 233 225 219 221 224 229 227 224 220 221 228 233 240 243 252
15 9 5 10 14 16 16 22 25 25 12 358 1 12 12 45 156 222 266 253 217 215 202 192 191 222 243 230 226 236 233 219 217 221 223 228 228 219 220 225 230 239 241 248
19 11 8 14 13 12 10 18 21 22 26 14 11 18 18 11 3 357 40 116 166 179 172 188 198 221 227 215 224 239 231 216 211 217 217 220 225 223 219 222 229 235 246 248
23 16 9 18 21 18 15 9 13 19 38 30 24 30 10 359 351 344 335 130 159 175 174 179 198 202 195 199 198 170 160 200 203 212 218 223 224 215 216 220 227 234 244 243
24 22 13 17 18 23 25 24 15 13 17 34 41 41 36 27 11 3 3 264 208 200 194 191 188 187 176 169 168 138 133 138 188 211 215 228 216 214 218 218 224 234 245 263
23 28 15 20 19 24 21 18 29 28 17 20 26 26 27 25 24 16 9 11 202 185 182 191 188 173 173 169 143 146 127 151 186 197 205 221 201 206 210 219 234 244 252 263
19 26 26 18 21 21 24 25 27 31 42 43 34 39 34 28 21 43 355 171 162 171 173 171 159 149 135 139 149 128 141 142 140 133 156 176 193 187 196 201 215 234 233 227
19 24 28 21 15 21 32 24 26 31 38 43 44 53 78 81 89 118 118 119 130 131 132 128 124 98 120 118 119 120 131 144 153 151 147 152 165 173 170 185 203 241 233 344
22 24 28 24 15 21 30 29 28 34 39 49 54 48 43 35 41 73 94 84 69 92 110 97 101 106 100 97 100 108 116 110 116 126 142 153 144 151 168 199 117 169 202 215
12 22 19 19 18 13 25 33 28 28 43 50 56 54 55 64 68 68 71 76 86 95 93 94 86 87 86 94 98 104 112 125 128 130 136 138 143 158 165 171 174 166 142 128
4 5 14 16 19 17 15 38 34 38 37 51 63 64 67 81 79 81 86 86 91 89 91 89 91 94 91 99 105 111 114 118 119 120 123 123 123 124 131 128 113 107 105 84
1 2 9 12 15 22 19 19 42 35 28 38 56 77 69 84 78 82 86 83 79 81 81 87 96 93 94 101 108 112 115 118 115 113 110 109 109 107 107 110 100 88 74 53
359 359 5 9 9 18 24 23 26 43 26 28 50 75 80 82 80 77 82 82 81 82 84 88 93 97 103 108 111 113 107 105 104 104 104 102 96 89 85 77 66 49 30 7
358 356 359 5 9 18 19 35 37 42 65 32 37 67 84 85 82 83 83 80 84 94 100 102 103 103 103 109 112 108 107 106 101 98 92 89 86 80 74 66 53 35 13 357
1 1 5 11 24 19 22 35 81 69 74 90 60 69 85 96 101 97 96 96 107 110 106 102 99 97 98 99 100 99 98 93 88 85 80 76 70 62 47 32 17 2 347 337
1 3 9 22 38 27 28 29 54 113 97 91 117 113 110 103 102 106 108 105 102 97 98 100 100 98 98 94 90 88 84 79 73 67 58 49 37 24 7 357 349 336 331 328
3 5 11 30 44 34 38 37 41 93 125 110 102 108 118 119 114 105 100 101 105 105 100 97 94 95 95 89 82 74 67 61 51 41 32 22 8 355 347 336 330 329 329 325
5 4 17 26 64 48 69 66 64 67 82 120 117 107 97 102 107 108 107 106 103 101 102 101 97 94 90 84 73 62 50 38 26 13 3 354 346 339 334 332 331 331 329 330
3 2 14 25 99 73 67 66 70 68 76 88 97 101 104 103 101 102 105 108 109 107 103 97 94 90 79 59 40 27 16 6 358 354 350 346 345 343 340 336 333 333 336 335
1 359 7 24 59 114 93 85 82 74 85 90 93 101 106 106 107 107 105 103 100 97 95 87 77 55 28 12 4 356 351 349 346 345 345 344 341 337 336 335 335 336 335 332